Showing default

HORYU 4, 41340

Orbit data source: Space-Track

HORYU 4, 41340 is a payload satellite owned by Kyutech (JP) in LEO that was launched on Wed, 17 Feb 2016 UTC via an H-IIA 202 launch vehicle from the Tanegashima Space Center (TNSTA). Payload-class satellites include a variety of spacecraft equipped with specific instruments for various scientific and technological missions. These include communications satellites like Starlink; space stations such as the ISS; scientific satellites like the Hubble; Earth observation satellites from companies like Planet Labs, Umbra, and HawkEye 360; GPS; miniature CubeSats for education and research; and military/defense satellites.

Not visible in the next 10 days
Identifier
41340, 2016-012D
Orbit
LEO
Country
Flag of JPJP / JPN
Related business
Manufacturer
Kyutech
Mission
Operational Amateur Technology
Bus & Motor
HORYU, Unknown motor
Mass
10 kg wet, 10 kg dry
Launch date (UTC)
2016-02-17 (10 years ago)
Launch vehicle
H-IIA 202
Launch site
Tanegashima Space Center (TNSTA)
Object type
Payload
Rocket body
Debris
Shape & HBR
Box, 0.2 m
Radar Cross Section
0.290 m², Medium (>0.1 m² and < 1m²)

Expand to show TLE details & history
Last TLE update: 1 day ago

TLE from 1 day ago
0 HORYU 4
1 41340U 16012D   25307.10201157  .00042336  00000-0  83105-3 0  9994
2 41340  30.9945 221.1893 0004042 190.6937 169.3626 15.46060942535402
Epoch: 2025-11-03T02:26Z
TLE epoch observation values (Epoch: 2025-11-03T02:26:53.799Z)
Latitude
0.00001°
Longitude
141.85694°
Altitude
429.451 km
Speed
7.655 km/s
True Right ascension
14h 44m 45s
True Declination
0° 00' 00"
Sunlit
Object was in daylight at epoch
Visualization orbit readout
Latitude
Unknown
Longitude
Unknown
Altitude
Unknown
Speed
Unknown
Apparent Right ascension
Unknown
Apparent Declination
Unknown
Sunlit
N/A
Visualization observer readout
Local Sidereal Time
02:37:08
Azimuth
Unknown
Elevation
Unknown
Doppler factor
Unknown
Orbital elements
Apogee altitude
434.918 km
Perigee altitude
429.412 km
Semi-major axis
6,810.302 km
Eccentricity
0.0004
Inclination
30.9945°
RAAN
221.1893°
Arg. of periapsis
190.6937°
True anomaly
169.37115°
Mean anomaly
169.3626°
Eccentric anomaly
169.36687°
Mean motion
3.86183 °/min
Orbital period
93.22 mins
BSTAR
0.00083105
Loading maneuver chart data...
Computing Atmospheric mass density...

Documentation

Showing up to 5 results
|